Location: Ash Observatory
(39.7321°N, 75.2004°W)
Time: 19:32:36
(UTC-04:00)

ISS - Pass Details

Date: 21 May 2019
Orbit: 408 x 418 km, 51.6° (Epoch: 18 June)

Event Time Altitude Azimuth Distance (km) Brightness Sun altitude
Rises 00:28:27 0° 309° (NW) 2,362 0.7 -29.8°
Reaches altitude 10° 00:31:50 10° 345° (NNW) 1,501 -0.1 -29.8°
Maximum altitude 00:32:59 11° 5° (N) 1,423 -0.2 -29.9°
Drops below altitude 10° 00:34:08 10° 25° (NNE) 1,502 -0.3 -29.9°
Enters shadow 00:35:48 - 48° (NE) 1,847 -0.1 -29.9°
